• în Republica Moldova
  • Lista ţărilor
  • Pe 7 zile
  • Temperatura apei
  • Hartă satelitară
  • Meteo pe hartă
  • Widget-uri
  • user-avatar
    Intrare

    Meteo pe oră la Tibissa

    Astăzi, 29 Mai, Luni

    Timp Temperatura Precipitaţii Vânt Presiune Umiditate
    00:00 +18°C° 0 mm 3 m/s 686 mmHg 52%
    01:00 +17°C° 0 mm 2 m/s 686 mmHg 56%
    02:00 +17°C° 0 mm 2 m/s 685 mmHg 58%
    03:00 +16°C° 0 mm 2 m/s 685 mmHg 60%
    04:00 +16°C° 0 mm 1 m/s 685 mmHg 61%
    05:00 +16°C° 0 mm 1 m/s 685 mmHg 58%
    06:00 +18°C° 0 mm 1 m/s 685 mmHg 55%
    07:00 +19°C° 0 mm 1 m/s 685 mmHg 52%
    08:00 +20°C° 0 mm 2 m/s 686 mmHg 46%
    09:00 +23°C° 0 mm 2 m/s 686 mmHg 40%
    10:00 +25°C° 0 mm 2 m/s 686 mmHg 33%
    11:00 +26°C° 0 mm 2 m/s 686 mmHg 31%
    12:00 +28°C° 0 mm 3 m/s 686 mmHg 28%
    13:00 +29°C° 0 mm 3 m/s 686 mmHg 25%
    14:00 +29°C° 0 mm 3 m/s 686 mmHg 24%
    15:00 +29°C° 0 mm 3 m/s 686 mmHg 24%
    16:00 +29°C° 0 mm 4 m/s 686 mmHg 24%
    17:00 +28°C° 0 mm 4 m/s 685 mmHg 27%
    18:00 +26°C° 0 mm 4 m/s 685 mmHg 31%
    19:00 +25°C° 0 mm 5 m/s 685 mmHg 35%
    20:00 +22°C° 0 mm 5 m/s 685 mmHg 40%
    21:00 +21°C° 0 mm 4 m/s 685 mmHg 45%
    22:00 +19°C° 0 mm 4 m/s 686 mmHg 50%
    23:00 +18°C° 0 mm 4 m/s 685 mmHg 53%

    Mâine, 30 Mai, Marţi

    Timp Temperatura Precipitaţii Vânt Presiune Umiditate
    00:00 +17°C° 0 mm 3 m/s 685 mmHg 55%
    01:00 +17°C° 0 mm 3 m/s 685 mmHg 58%
    02:00 +16°C° 0 mm 2 m/s 685 mmHg 59%
    03:00 +16°C° 0 mm 2 m/s 685 mmHg 60%
    04:00 +15°C° 0 mm 2 m/s 684 mmHg 61%
    05:00 +16°C° 0 mm 2 m/s 685 mmHg 57%
    06:00 +17°C° 0 mm 2 m/s 685 mmHg 53%
    07:00 +18°C° 0 mm 2 m/s 686 mmHg 49%
    08:00 +20°C° 0 mm 2 m/s 686 mmHg 43%
    09:00 +23°C° 0 mm 2 m/s 687 mmHg 37%
    10:00 +25°C° 0 mm 2 m/s 687 mmHg 32%
    11:00 +26°C° 0 mm 2 m/s 687 mmHg 30%
    12:00 +27°C° 0 mm 2 m/s 687 mmHg 29%
    13:00 +28°C° 0 mm 3 m/s 688 mmHg 28%
    14:00 +28°C° 0 mm 3 m/s 687 mmHg 28%
    15:00 +28°C° 0 mm 3 m/s 687 mmHg 28%
    16:00 +28°C° 0 mm 3 m/s 687 mmHg 28%
    17:00 +27°C° 0,1 mm 3 m/s 687 mmHg 33%
    18:00 +26°C° 0,1 mm 3 m/s 687 mmHg 38%
    19:00 +24°C° 0,1 mm 3 m/s 687 mmHg 42%
    20:00 +22°C° 0,1 mm 3 m/s 687 mmHg 47%
    21:00 +21°C° 0,1 mm 3 m/s 687 mmHg 52%
    22:00 +20°C° 0,1 mm 3 m/s 688 mmHg 56%
    23:00 +20°C° 0 mm 3 m/s 687 mmHg 58%

    Poimâine, 31 Mai, Miercuri

    Timp Temperatura Precipitaţii Vânt Presiune Umiditate
    00:00 +19°C° 0 mm 2 m/s 687 mmHg 61%
    01:00 +18°C° 0 mm 2 m/s 687 mmHg 63%
    02:00 +18°C° 0 mm 2 m/s 687 mmHg 64%
    03:00 +17°C° 0 mm 2 m/s 687 mmHg 65%
    04:00 +17°C° 0 mm 2 m/s 686 mmHg 67%
    05:00 +18°C° 0 mm 2 m/s 687 mmHg 62%
    06:00 +19°C° 0 mm 1 m/s 687 mmHg 57%
    07:00 +20°C° 0 mm 1 m/s 688 mmHg 53%
    08:00 +21°C° 0 mm 2 m/s 688 mmHg 45%
    09:00 +24°C° 0 mm 2 m/s 688 mmHg 37%
    10:00 +26°C° 0 mm 2 m/s 689 mmHg 30%
    11:00 +27°C° 0 mm 3 m/s 689 mmHg 28%
    12:00 +28°C° 0 mm 3 m/s 689 mmHg 25%
    13:00 +29°C° 0 mm 3 m/s 689 mmHg 23%
    14:00 +30°C° 0 mm 3 m/s 689 mmHg 23%
    15:00 +30°C° 0 mm 3 m/s 688 mmHg 23%
    16:00 +30°C° 0 mm 3 m/s 688 mmHg 22%
    17:00 +29°C° 0 mm 3 m/s 688 mmHg 26%
    18:00 +28°C° 0 mm 4 m/s 688 mmHg 29%
    19:00 +26°C° 0 mm 4 m/s 688 mmHg 32%
    20:00 +25°C° 0 mm 3 m/s 688 mmHg 38%
    21:00 +22°C° 0 mm 3 m/s 688 mmHg 45%
    22:00 +21°C° 0 mm 2 m/s 689 mmHg 51%
    23:00 +20°C° 0,1 mm 2 m/s 688 mmHg 54%

    1 Iunie, Joi

    Timp Temperatura Precipitaţii Vânt Presiune Umiditate
    00:00 +20°C° 0,1 mm 2 m/s 688 mmHg 56%
    01:00 +19°C° 0,1 mm 2 m/s 688 mmHg 59%
    02:00 +20°C° 0 mm 1 m/s 687 mmHg 60%
    03:00 +19°C° 0 mm 1 m/s 687 mmHg 61%
    04:00 +19°C° 0 mm 1 m/s 687 mmHg 62%
    05:00 +20°C° 0 mm 1 m/s 687 mmHg 57%
    06:00 +21°C° 0 mm 1 m/s 688 mmHg 52%
    07:00 +22°C° 0 mm 1 m/s 688 mmHg 47%
    08:00 +24°C° 0 mm 2 m/s 688 mmHg 40%
    09:00 +26°C° 0 mm 2 m/s 689 mmHg 33%
    10:00 +28°C° 0 mm 3 m/s 690 mmHg 25%
    11:00 +29°C° 0 mm 2 m/s 689 mmHg 23%
    12:00 +31°C° 0 mm 2 m/s 689 mmHg 21%
    13:00 +32°C° 0 mm 2 m/s 689 mmHg 20%
    14:00 +33°C° 0 mm 3 m/s 689 mmHg 20%
    15:00 +31°C° 0 mm 3 m/s 689 mmHg 21%
    16:00 +32°C° 0 mm 4 m/s 689 mmHg 22%
    17:00 +30°C° 0 mm 3 m/s 689 mmHg 25%
    18:00 +29°C° 0 mm 3 m/s 689 mmHg 28%
    19:00 +28°C° 0 mm 3 m/s 689 mmHg 31%
    20:00 +26°C° 0,1 mm 3 m/s 689 mmHg 37%
    21:00 +25°C° 0,1 mm 2 m/s 689 mmHg 43%
    22:00 +24°C° 0,1 mm 2 m/s 689 mmHg 49%
    23:00 +23°C° 0 mm 2 m/s 689 mmHg 51%

    2 Iunie, Vineri

    Timp Temperatura Precipitaţii Vânt Presiune Umiditate
    00:00 +23°C° 0 mm 2 m/s 688 mmHg 53%
    01:00 +22°C° 0 mm 1 m/s 688 mmHg 55%
    02:00 +22°C° 0 mm 1 m/s 688 mmHg 56%
    03:00 +22°C° 0 mm 1 m/s 687 mmHg 57%
    04:00 +21°C° 0 mm 1 m/s 687 mmHg 58%
    05:00 +22°C° 0,2 mm 1 m/s 687 mmHg 56%
    06:00 +22°C° 0,2 mm 1 m/s 688 mmHg 54%
    07:00 +23°C° 0,2 mm 1 m/s 688 mmHg 52%
    08:00 +25°C° 0 mm 1 m/s 688 mmHg 46%
    09:00 +27°C° 0 mm 1 m/s 689 mmHg 39%
    10:00 +27°C° 0 mm 0 m/s 689 mmHg 33%
    11:00 +30°C° 0 mm 1 m/s 689 mmHg 30%
    12:00 +31°C° 0 mm 1 m/s 689 mmHg 27%
    13:00 +32°C° 0 mm 2 m/s 689 mmHg 24%
    14:00 +31°C° 0,1 mm 2 m/s 688 mmHg 26%
    15:00 +30°C° 0,1 mm 2 m/s 688 mmHg 28%
    16:00 +29°C° 0,1 mm 2 m/s 687 mmHg 31%
    17:00 +29°C° 0,3 mm 2 m/s 687 mmHg 34%
    18:00 +28°C° 0,3 mm 2 m/s 687 mmHg 37%
    19:00 +27°C° 0,3 mm 3 m/s 687 mmHg 40%
    20:00 +25°C° 1,6 mm 3 m/s 687 mmHg 48%
    21:00 +23°C° 1,6 mm 4 m/s 687 mmHg 56%
    22:00 +21°C° 1,6 mm 5 m/s 688 mmHg 65%
    23:00 +21°C° 0,4 mm 4 m/s 687 mmHg 63%

    3 Iunie, Sâmbătă

    Timp Temperatura Precipitaţii Vânt Presiune Umiditate
    00:00 +21°C° 0,4 mm 3 m/s 687 mmHg 62%
    01:00 +21°C° 0,4 mm 2 m/s 687 mmHg 60%
    02:00 +21°C° 0 mm 2 m/s 686 mmHg 59%
    03:00 +21°C° 0 mm 2 m/s 686 mmHg 58%
    04:00 +21°C° 0 mm 1 m/s 686 mmHg 57%
    05:00 +22°C° 0 mm 1 m/s 686 mmHg 54%
    06:00 +23°C° 0 mm 1 m/s 686 mmHg 50%
    07:00 +24°C° 0 mm 1 m/s 687 mmHg 47%
    08:00 +26°C° 0 mm 1 m/s 687 mmHg 42%
    09:00 +28°C° 0 mm 1 m/s 687 mmHg 37%
    10:00 +30°C° 0 mm 1 m/s 688 mmHg 32%
    11:00 +31°C° 0 mm 2 m/s 687 mmHg 30%
    12:00 +31°C° 0 mm 2 m/s 687 mmHg 27%
    13:00 +32°C° 0 mm 2 m/s 687 mmHg 25%
    14:00 +32°C° 0 mm 2 m/s 686 mmHg 26%
    15:00 +31°C° 0 mm 2 m/s 686 mmHg 27%
    16:00 +31°C° 0 mm 2 m/s 686 mmHg 27%
    17:00 +30°C° 0 mm 2 m/s 686 mmHg 30%
    18:00 +30°C° 0 mm 2 m/s 686 mmHg 33%
    19:00 +29°C° 0 mm 1 m/s 686 mmHg 36%
    20:00 +28°C° 0 mm 1 m/s 686 mmHg 38%
    21:00 +26°C° 0 mm 1 m/s 686 mmHg 40%
    22:00 +25°C° 0 mm 1 m/s 686 mmHg 43%
    23:00 +25°C° 0 mm 2 m/s 686 mmHg 44%
    Arată mai mult